Time,TemperatureF,DewpointF,PressureIn,WindDirection,WindDirectionDegrees,WindSpeedMPH,WindSpeedGustMPH,Humidity,HourlyPrecipIn,Conditions,Clouds,dailyrainin,SoftwareType,DateUTC
2013-11-04 00:00:00,30.9,23.6,30.35,SW,215,2.0,6.0,74,0.00,,SKC,0.00,VWS V14.01,2013-11-04 05:00:00,
2013-11-04 00:01:00,30.9,23.6,30.35,SW,223,3.0,6.0,74,0.00,,SKC,0.00,VWS V14.01,2013-11-04 05:01:00,
2013-11-04 00:02:00,30.9,23.6,30.35,SW,223,0.0,3.0,74,0.00,,SKC,0.00,VWS V14.01,2013-11-04 05:02:00,
2013-11-04 00:07:00,30.7,23.4,30.35,SW,223,0.0,3.0,74,0.00,,SKC,0.00,VWS V14.01,2013-11-04 05:07:00,
2013-11-04 00:12:00,30.7,23.7,30.35,South,184,0.0,3.0,75,0.00,,SKC,0.00,VWS V14.01,2013-11-04 05:12:00,
2013-11-04 00:17:00,30.7,23.7,30.36,South,190,0.0,3.0,75,0.00,,SKC,0.00,VWS V14.01,2013-11-04 05:17:00,
2013-11-04 00:23:00,30.6,23.6,30.36,South,190,0.0,3.0,75,0.00,,SKC,0.00,VWS V14.01,2013-11-04 05:23:00,
2013-11-04 00:28:00,30.6,23.6,30.36,South,190,0.0,3.0,75,0.00,,SKC,0.00,VWS V14.01,2013-11-04 05:28:00,
2013-11-04 00:33:00,30.4,23.4,30.36,South,190,0.0,3.0,75,0.00,,SKC,0.00,VWS V14.01,2013-11-04 05:33:00,
2013-11-04 00:38:00,30.3,23.3,30.36,South,190,0.0,3.0,75,0.00,,SKC,0.00,VWS V14.01,2013-11-04 05:38:00,
2013-11-04 00:43:00,30.3,23.3,30.36,South,190,0.0,3.0,75,0.00,,SKC,0.00,VWS V14.01,2013-11-04 05:43:00,
2013-11-04 00:48:00,30.1,23.1,30.37,South,190,0.0,3.0,75,0.00,,SKC,0.00,VWS V14.01,2013-11-04 05:48:00,
2013-11-04 00:53:00,30.1,23.1,30.37,South,190,0.0,3.0,75,0.00,,SKC,0.00,VWS V14.01,2013-11-04 05:53:00,
2013-11-04 00:59:00,30.0,23.0,30.37,South,190,2.0,3.0,75,0.00,,SKC,0.00,VWS V14.01,2013-11-04 05:59:00,
2013-11-04 01:00:00,30.9,23.6,30.35,SW,223,3.0,6.0,74,0.00,,SKC,0.00,VWS V14.01,2013-11-04 06:00:00,
2013-11-04 01:04:00,29.8,22.9,30.38,South,190,0.0,0.0,75,0.00,,SKC,0.00,VWS V14.01,2013-11-04 06:04:00,
2013-11-04 01:09:00,29.8,22.9,30.38,South,190,0.0,1.0,75,0.00,,SKC,0.00,VWS V14.01,2013-11-04 06:09:00,
2013-11-04 01:14:00,29.7,22.8,30.38,South,190,0.0,1.0,75,0.00,,SKC,0.00,VWS V14.01,2013-11-04 06:14:00,
2013-11-04 01:19:00,29.7,23.1,30.37,South,190,0.0,1.0,76,0.00,,SKC,0.00,VWS V14.01,2013-11-04 06:19:00,
2013-11-04 01:24:00,29.5,22.9,30.37,South,190,0.0,1.0,76,0.00,,SKC,0.00,VWS V14.01,2013-11-04 06:24:00,
2013-11-04 01:29:00,29.5,22.9,30.37,South,190,0.0,2.0,76,0.00,,SKC,0.00,VWS V14.01,2013-11-04 06:29:00,
2013-11-04 01:34:00,29.4,22.8,30.38,SW,226,4.0,4.0,76,0.00,,SKC,0.00,VWS V14.01,2013-11-04 06:34:00,
2013-11-04 01:40:00,29.3,22.7,30.38,SW,231,0.0,4.0,76,0.00,,SKC,0.00,VWS V14.01,2013-11-04 06:40:00,
2013-11-04 01:45:00,29.3,22.7,30.38,SW,236,0.0,4.0,76,0.00,,SKC,0.00,VWS V14.01,2013-11-04 06:45:00,
2013-11-04 01:50:00,29.3,22.7,30.37,SW,236,0.0,4.0,76,0.00,,SKC,0.00,VWS V14.01,2013-11-04 06:50:00,
2013-11-04 01:55:00,29.4,22.8,30.37,West,266,0.0,6.0,76,0.00,,SKC,0.00,VWS V14.01,2013-11-04 06:55:00,
2013-11-04 02:00:00,29.4,22.8,30.38,West,266,0.0,6.0,76,0.00,,SKC,0.00,VWS V14.01,2013-11-04 07:00:00,
2013-11-04 02:05:00,29.3,22.7,30.38,West,266,0.0,1.0,76,0.00,,SKC,0.00,VWS V14.01,2013-11-04 07:05:00,
2013-11-04 02:10:00,29.1,22.5,30.38,West,266,1.0,4.0,76,0.00,,SKC,0.00,VWS V14.01,2013-11-04 07:10:00,
2013-11-04 02:15:00,29.1,22.5,30.38,West,276,1.0,4.0,76,0.00,,SKC,0.00,VWS V14.01,2013-11-04 07:15:00,
2013-11-04 02:20:00,29.1,22.5,30.38,WNW,283,0.0,4.0,76,0.00,,SKC,0.00,VWS V14.01,2013-11-04 07:20:00,
2013-11-04 02:26:00,29.1,22.5,30.38,WNW,284,0.0,4.0,76,0.00,,SKC,0.00,VWS V14.01,2013-11-04 07:26:00,
2013-11-04 02:31:00,29.1,22.5,30.38,West,265,0.0,6.0,76,0.00,,SKC,0.00,VWS V14.01,2013-11-04 07:31:00,
2013-11-04 02:36:00,29.1,22.5,30.38,West,265,0.0,6.0,76,0.00,,SKC,0.00,VWS V14.01,2013-11-04 07:36:00,
2013-11-04 02:41:00,29.1,22.5,30.38,West,271,0.0,8.0,76,0.00,,SKC,0.00,VWS V14.01,2013-11-04 07:41:00,
2013-11-04 02:46:00,29.1,22.5,30.37,WSW,254,0.0,8.0,76,0.00,,SKC,0.00,VWS V14.01,2013-11-04 07:46:00,
2013-11-04 02:51:00,29.0,22.4,30.37,WSW,252,0.0,8.0,76,0.00,,SKC,0.00,VWS V14.01,2013-11-04 07:51:00,
2013-11-04 02:56:00,28.8,22.2,30.37,WSW,250,0.0,8.0,76,0.00,,SKC,0.00,VWS V14.01,2013-11-04 07:56:00,
2013-11-04 03:00:00,29.4,22.8,30.38,West,266,0.0,6.0,76,0.00,,SKC,0.00,VWS V14.01,2013-11-04 08:00:00,
2013-11-04 03:01:00,28.8,22.2,30.38,WSW,252,1.0,3.0,76,0.00,,SKC,0.00,VWS V14.01,2013-11-04 08:01:00,
2013-11-04 03:07:00,28.8,22.2,30.38,WSW,253,0.0,3.0,76,0.00,,SKC,0.00,VWS V14.01,2013-11-04 08:07:00,
2013-11-04 03:12:00,28.8,22.2,30.38,WSW,253,0.0,3.0,76,0.00,,SKC,0.00,VWS V14.01,2013-11-04 08:12:00,
2013-11-04 03:17:00,28.7,22.1,30.37,WSW,254,0.0,3.0,76,0.00,,SKC,0.00,VWS V14.01,2013-11-04 08:17:00,
2013-11-04 03:22:00,28.7,22.1,30.37,WSW,254,1.0,3.0,76,0.00,,SKC,0.00,VWS V14.01,2013-11-04 08:22:00,
2013-11-04 03:27:00,28.7,22.1,30.37,WNW,298,0.0,3.0,76,0.00,,SKC,0.00,VWS V14.01,2013-11-04 08:27:00,
2013-11-04 03:32:00,28.7,22.1,30.38,WNW,298,0.0,4.0,76,0.00,,SKC,0.00,VWS V14.01,2013-11-04 08:32:00,
2013-11-04 03:37:00,28.7,22.1,30.38,WNW,298,0.0,5.0,76,0.00,,SKC,0.00,VWS V14.01,2013-11-04 08:37:00,
2013-11-04 03:42:00,28.8,22.2,30.38,West,269,0.0,6.0,76,0.00,,SKC,0.00,VWS V14.01,2013-11-04 08:42:00,
2013-11-04 03:47:00,28.8,22.2,30.38,WSW,257,0.0,6.0,76,0.00,,SKC,0.00,VWS V14.01,2013-11-04 08:47:00,
2013-11-04 03:53:00,28.7,22.1,30.38,WSW,254,0.0,6.0,76,0.00,,SKC,0.00,VWS V14.01,2013-11-04 08:53:00,
2013-11-04 03:58:00,28.7,22.1,30.38,WSW,250,0.0,6.0,76,0.00,,SKC,0.00,VWS V14.01,2013-11-04 08:58:00,
2013-11-04 04:00:00,28.8,22.2,30.38,WSW,250,2.0,8.0,76,0.00,,SKC,0.00,VWS V14.01,2013-11-04 09:00:00,
2013-11-04 04:03:00,28.7,22.1,30.38,WSW,245,1.0,5.0,76,0.00,,SKC,0.00,VWS V14.01,2013-11-04 09:03:00,
2013-11-04 04:08:00,28.7,21.8,30.38,SW,227,0.0,5.0,75,0.00,,SKC,0.00,VWS V14.01,2013-11-04 09:08:00,
2013-11-04 04:13:00,28.5,21.9,30.38,SW,234,0.0,5.0,76,0.00,,SKC,0.00,VWS V14.01,2013-11-04 09:13:00,
2013-11-04 04:18:00,28.5,21.9,30.38,SW,234,0.0,5.0,76,0.00,,SKC,0.00,VWS V14.01,2013-11-04 09:18:00,
2013-11-04 04:23:00,28.5,21.9,30.38,SW,234,0.0,5.0,76,0.00,,SKC,0.00,VWS V14.01,2013-11-04 09:23:00,
2013-11-04 04:28:00,28.4,21.8,30.38,West,265,0.0,5.0,76,0.00,,SKC,0.00,VWS V14.01,2013-11-04 09:28:00,
2013-11-04 04:34:00,28.4,21.8,30.38,West,265,2.0,5.0,76,0.00,,SKC,0.00,VWS V14.01,2013-11-04 09:34:00,
2013-11-04 04:39:00,28.4,21.8,30.38,West,267,0.0,6.0,76,0.00,,SKC,0.00,VWS V14.01,2013-11-04 09:39:00,
2013-11-04 04:44:00,28.4,21.8,30.38,West,267,0.0,6.0,76,0.00,,SKC,0.00,VWS V14.01,2013-11-04 09:44:00,
2013-11-04 04:49:00,28.2,21.6,30.38,West,267,0.0,6.0,76,0.00,,SKC,0.00,VWS V14.01,2013-11-04 09:49:00,
2013-11-04 04:54:00,28.1,21.5,30.38,West,267,1.0,6.0,76,0.00,,SKC,0.00,VWS V14.01,2013-11-04 09:54:00,
2013-11-04 04:59:00,28.1,21.5,30.38,West,267,1.0,6.0,76,0.00,,SKC,0.00,VWS V14.01,2013-11-04 09:59:00,
2013-11-04 05:00:00,28.7,22.1,30.38,WSW,245,0.0,6.0,76,0.00,,SKC,0.00,VWS V14.01,2013-11-04 10:00:00,
2013-11-04 05:04:00,28.1,21.5,30.38,WNW,283,4.0,6.0,76,0.00,,SKC,0.00,VWS V14.01,2013-11-04 10:04:00,
2013-11-04 05:09:00,28.1,21.5,30.38,WNW,288,1.0,6.0,76,0.00,,SKC,0.00,VWS V14.01,2013-11-04 10:09:00,
2013-11-04 05:14:00,28.2,21.6,30.38,WNW,284,1.0,6.0,76,0.00,,SKC,0.00,VWS V14.01,2013-11-04 10:14:00,
2013-11-04 05:20:00,28.2,21.6,30.39,WNW,284,4.0,6.0,76,0.00,,SKC,0.00,VWS V14.01,2013-11-04 10:20:00,
2013-11-04 05:25:00,28.4,21.5,30.39,WNW,284,2.0,6.0,75,0.00,,SKC,0.00,VWS V14.01,2013-11-04 10:25:00,
2013-11-04 05:30:00,28.4,21.5,30.39,West,261,1.0,6.0,75,0.00,,SKC,0.00,VWS V14.01,2013-11-04 10:30:00,
2013-11-04 05:35:00,28.4,21.5,30.39,WSW,247,6.0,6.0,75,0.00,,SKC,0.00,VWS V14.01,2013-11-04 10:35:00,
2013-11-04 05:40:00,28.4,21.5,30.39,WSW,249,6.0,8.0,75,0.00,,SKC,0.00,VWS V14.01,2013-11-04 10:40:00,
2013-11-04 05:45:00,28.4,21.5,30.40,WSW,242,1.0,8.0,75,0.00,,SKC,0.00,VWS V14.01,2013-11-04 10:45:00,
2013-11-04 05:50:00,28.5,21.6,30.40,WNW,298,8.0,8.0,75,0.00,,SKC,0.00,VWS V14.01,2013-11-04 10:50:00,
2013-11-04 05:55:00,28.5,21.6,30.40,WSW,254,5.0,8.0,75,0.00,,SKC,0.00,VWS V14.01,2013-11-04 10:55:00,
2013-11-04 06:00:00,28.5,21.6,30.39,WSW,242,7.0,8.0,75,0.00,,SKC,0.00,VWS V14.01,2013-11-04 11:00:00,
2013-11-04 06:06:00,28.4,21.5,30.39,WSW,238,6.0,6.0,75,0.00,,SKC,0.00,VWS V14.01,2013-11-04 11:06:00,
2013-11-04 06:11:00,28.4,21.5,30.39,West,279,5.0,9.0,75,0.00,,SKC,0.00,VWS V14.01,2013-11-04 11:11:00,
2013-11-04 06:14:00,28.5,21.6,30.39,WSW,246,0.0,11.0,75,0.00,,SKC,0.00,VWS V14.01,2013-11-04 11:14:00,
2013-11-04 06:19:00,28.5,21.6,30.39,West,264,6.0,11.0,75,0.00,,SKC,0.00,VWS V14.01,2013-11-04 11:19:00,
2013-11-04 06:23:00,28.5,21.6,30.39,WSW,253,6.0,11.0,75,0.00,,SKC,0.00,VWS V14.01,2013-11-04 11:23:00,
2013-11-04 06:28:00,28.7,21.5,30.39,SSW,199,5.0,11.0,74,0.00,,SKC,0.00,VWS V14.01,2013-11-04 11:28:00,
2013-11-04 06:34:00,28.7,21.5,30.39,West,266,0.0,11.0,74,0.00,,SKC,0.00,VWS V14.01,2013-11-04 11:34:00,
2013-11-04 06:39:00,28.7,21.5,30.39,SW,234,0.0,11.0,74,0.00,,SKC,0.00,VWS V14.01,2013-11-04 11:39:00,
2013-11-04 06:44:00,28.7,21.5,30.39,WSW,248,0.0,11.0,74,0.00,,SKC,0.00,VWS V14.01,2013-11-04 11:44:00,
2013-11-04 06:49:00,28.7,21.5,30.40,SW,234,2.0,11.0,74,0.00,,SKC,0.00,VWS V14.01,2013-11-04 11:49:00,
2013-11-04 06:54:00,28.7,21.5,30.40,SW,233,4.0,11.0,74,0.00,,SKC,0.00,VWS V14.01,2013-11-04 11:54:00,
2013-11-04 06:59:00,28.7,21.5,30.40,West,278,0.0,11.0,74,0.00,,SKC,0.00,VWS V14.01,2013-11-04 11:59:00,
2013-11-04 07:00:00,28.5,21.6,30.39,West,267,5.0,8.0,75,0.00,,SKC,0.00,VWS V14.01,2013-11-04 12:00:00,
2013-11-04 07:04:00,28.7,21.5,30.40,West,273,4.0,4.0,74,0.00,,SKC,0.00,VWS V14.01,2013-11-04 12:04:00,
2013-11-04 07:09:00,28.7,21.5,30.40,WSW,246,0.0,6.0,74,0.00,,SKC,0.00,VWS V14.01,2013-11-04 12:09:00,
2013-11-04 07:14:00,28.7,21.8,30.40,WSW,257,5.0,6.0,75,0.00,,SKC,0.00,VWS V14.01,2013-11-04 12:14:00,
2013-11-04 07:20:00,28.8,21.9,30.41,West,275,0.0,7.0,75,0.00,,SKC,0.00,VWS V14.01,2013-11-04 12:20:00,
2013-11-04 07:25:00,28.8,21.9,30.41,West,275,0.0,7.0,75,0.00,,SKC,0.00,VWS V14.01,2013-11-04 12:25:00,
2013-11-04 07:30:00,28.8,21.9,30.41,West,275,0.0,7.0,75,0.00,,SKC,0.00,VWS V14.01,2013-11-04 12:30:00,
2013-11-04 07:35:00,28.8,21.9,30.41,West,275,0.0,7.0,75,0.00,,SKC,0.00,VWS V14.01,2013-11-04 12:35:00,
2013-11-04 07:40:00,29.0,22.1,30.41,West,260,4.0,8.0,75,0.00,,SKC,0.00,VWS V14.01,2013-11-04 12:40:00,
2013-11-04 07:45:00,29.1,22.2,30.41,West,277,2.0,9.0,75,0.00,,SKC,0.00,VWS V14.01,2013-11-04 12:45:00,
2013-11-04 07:50:00,29.3,22.1,30.41,WNW,284,0.0,9.0,74,0.00,,SKC,0.00,VWS V14.01,2013-11-04 12:50:00,
2013-11-04 07:55:00,29.4,22.1,30.41,WSW,242,5.0,9.0,74,0.00,,SKC,0.00,VWS V14.01,2013-11-04 12:55:00,
2013-11-04 08:00:00,29.5,22.2,30.40,SW,224,1.0,10.0,74,0.00,,SKC,0.00,VWS V14.01,2013-11-04 13:00:00,
2013-11-04 08:05:00,29.7,22.1,30.40,SW,219,9.0,10.0,73,0.00,,SKC,0.00,VWS V14.01,2013-11-04 13:05:00,
2013-11-04 08:10:00,29.8,22.2,30.40,SW,224,7.0,10.0,73,0.00,,SKC,0.00,VWS V14.01,2013-11-04 13:10:00,
2013-11-04 08:16:00,30.0,22.4,30.40,WSW,241,4.0,11.0,73,0.00,,SKC,0.00,VWS V14.01,2013-11-04 13:16:00,
2013-11-04 08:21:00,30.1,22.5,30.40,WSW,250,8.0,14.0,73,0.00,,SKC,0.00,VWS V14.01,2013-11-04 13:21:00,
2013-11-04 08:26:00,30.3,22.4,30.40,WSW,248,6.0,14.0,72,0.00,,SKC,0.00,VWS V14.01,2013-11-04 13:26:00,
2013-11-04 08:31:00,30.6,22.7,30.41,WNW,291,5.0,14.0,72,0.00,,SKC,0.00,VWS V14.01,2013-11-04 13:31:00,
2013-11-04 08:36:00,30.7,22.4,30.41,WNW,291,6.0,14.0,71,0.00,,SKC,0.00,VWS V14.01,2013-11-04 13:36:00,
2013-11-04 08:41:00,30.9,22.6,30.41,WNW,286,7.0,14.0,71,0.00,,SKC,0.00,VWS V14.01,2013-11-04 13:41:00,
2013-11-04 08:46:00,31.0,22.7,30.40,West,267,5.0,14.0,71,0.00,,SKC,0.00,VWS V14.01,2013-11-04 13:46:00,
2013-11-04 08:51:00,31.0,22.7,30.40,WNW,298,5.0,14.0,71,0.00,,SKC,0.00,VWS V14.01,2013-11-04 13:51:00,
2013-11-04 08:56:00,31.2,22.9,30.40,WNW,287,6.0,14.0,71,0.00,,SKC,0.00,VWS V14.01,2013-11-04 13:56:00,
2013-11-04 09:00:00,29.5,22.2,30.40,SW,234,2.0,10.0,74,0.00,,SKC,0.00,VWS V14.01,2013-11-04 14:00:00,
2013-11-04 09:01:00,31.2,22.9,30.40,WNW,295,3.0,6.0,71,0.00,,SKC,0.00,VWS V14.01,2013-11-04 14:01:00,
2013-11-04 09:06:00,31.3,23.0,30.40,WNW,290,4.0,9.0,71,0.00,,SKC,0.00,VWS V14.01,2013-11-04 14:06:00,
2013-11-04 09:12:00,31.5,23.2,30.40,West,278,6.0,10.0,71,0.00,,SKC,0.00,VWS V14.01,2013-11-04 14:12:00,
2013-11-04 09:17:00,31.6,23.3,30.39,West,259,4.0,10.0,71,0.00,,SKC,0.00,VWS V14.01,2013-11-04 14:17:00,
2013-11-04 09:22:00,31.8,23.5,30.39,West,259,0.0,11.0,71,0.00,,SKC,0.00,VWS V14.01,2013-11-04 14:22:00,
2013-11-04 09:27:00,31.9,23.6,30.39,NW,318,1.0,11.0,71,0.00,,SKC,0.00,VWS V14.01,2013-11-04 14:27:00,
2013-11-04 09:32:00,32.2,23.9,30.40,NW,323,1.0,11.0,71,0.00,,SKC,0.00,VWS V14.01,2013-11-04 14:32:00,
2013-11-04 09:37:00,32.4,23.7,30.40,West,279,3.0,11.0,70,0.00,,SKC,0.00,VWS V14.01,2013-11-04 14:37:00,
2013-11-04 09:42:00,32.5,23.8,30.40,WSW,253,0.0,11.0,70,0.00,,SKC,0.00,VWS V14.01,2013-11-04 14:42:00,
2013-11-04 09:47:00,32.8,24.1,30.40,NW,321,0.0,11.0,70,0.00,,SKC,0.00,VWS V14.01,2013-11-04 14:47:00,
2013-11-04 09:52:00,33.1,24.4,30.40,WSW,240,5.0,11.0,70,0.00,,SKC,0.00,VWS V14.01,2013-11-04 14:52:00,
2013-11-04 09:57:00,33.1,24.0,30.40,WSW,244,2.0,11.0,69,0.00,,SKC,0.00,VWS V14.01,2013-11-04 14:57:00,
2013-11-04 10:00:00,31.2,22.9,30.40,WNW,295,5.0,14.0,71,0.00,,SKC,0.00,VWS V14.01,2013-11-04 15:00:00,
2013-11-04 10:02:00,33.4,24.3,30.40,SW,233,5.0,5.0,69,0.00,,SKC,0.00,VWS V14.01,2013-11-04 15:02:00,
2013-11-04 10:08:00,33.7,24.6,30.40,West,259,2.0,7.0,69,0.00,,SKC,0.00,VWS V14.01,2013-11-04 15:08:00,
2013-11-04 10:13:00,33.8,24.4,30.40,WNW,292,5.0,8.0,68,0.00,,SKC,0.00,VWS V14.01,2013-11-04 15:13:00,
2013-11-04 10:18:00,34.0,24.6,30.40,WSW,252,2.0,8.0,68,0.00,,SKC,0.00,VWS V14.01,2013-11-04 15:18:00,
2013-11-04 10:23:00,34.3,24.9,30.40,WNW,297,5.0,8.0,68,0.00,,SKC,0.00,VWS V14.01,2013-11-04 15:23:00,
2013-11-04 10:28:00,34.7,24.9,30.40,WNW,290,5.0,8.0,67,0.00,,SKC,0.00,VWS V14.01,2013-11-04 15:28:00,
2013-11-04 10:33:00,35.0,25.2,30.39,West,273,2.0,10.0,67,0.00,,SKC,0.00,VWS V14.01,2013-11-04 15:33:00,
2013-11-04 10:38:00,35.2,24.3,30.39,West,271,8.0,10.0,64,0.00,,SKC,0.00,VWS V14.01,2013-11-04 15:38:00,
2013-11-04 10:43:00,35.3,24.7,30.39,WNW,284,5.0,10.0,65,0.00,,SKC,0.00,VWS V14.01,2013-11-04 15:43:00,
2013-11-04 10:48:00,35.3,24.7,30.40,NW,313,7.0,10.0,65,0.00,,SKC,0.00,VWS V14.01,2013-11-04 15:48:00,
2013-11-04 10:53:00,35.6,25.0,30.40,West,270,4.0,10.0,65,0.00,,SKC,0.00,VWS V14.01,2013-11-04 15:53:00,
2013-11-04 10:58:00,35.8,25.2,30.40,WNW,284,5.0,10.0,65,0.00,,SKC,0.00,VWS V14.01,2013-11-04 15:58:00,
2013-11-04 11:00:00,33.2,24.1,30.40,West,265,0.0,11.0,69,0.00,,SKC,0.00,VWS V14.01,2013-11-04 16:00:00,
2013-11-04 11:03:00,35.9,25.3,30.39,WNW,282,1.0,8.0,65,0.00,,SKC,0.00,VWS V14.01,2013-11-04 16:03:00,
2013-11-04 11:09:00,35.9,25.3,30.39,WNW,300,4.0,9.0,65,0.00,,SKC,0.00,VWS V14.01,2013-11-04 16:09:00,
2013-11-04 11:14:00,36.2,25.2,30.39,West,267,3.0,9.0,64,0.00,,SKC,0.00,VWS V14.01,2013-11-04 16:14:00,
2013-11-04 11:19:00,36.3,25.3,30.39,WNW,283,4.0,11.0,64,0.00,,SKC,0.00,VWS V14.01,2013-11-04 16:19:00,
2013-11-04 11:24:00,36.5,25.5,30.39,WNW,302,3.0,11.0,64,0.00,,SKC,0.00,VWS V14.01,2013-11-04 16:24:00,
2013-11-04 11:29:00,36.9,25.9,30.39,West,260,0.0,11.0,64,0.00,,SKC,0.00,VWS V14.01,2013-11-04 16:29:00,
2013-11-04 11:34:00,37.0,25.2,30.38,WNW,282,5.0,11.0,62,0.00,,SKC,0.00,VWS V14.01,2013-11-04 16:34:00,
2013-11-04 11:39:00,37.5,26.1,30.38,WNW,294,1.0,11.0,63,0.00,,SKC,0.00,VWS V14.01,2013-11-04 16:39:00,
2013-11-04 11:44:00,37.9,25.7,30.38,WSW,244,1.0,11.0,61,0.00,,SKC,0.00,VWS V14.01,2013-11-04 16:44:00,
2013-11-04 11:50:00,37.9,26.1,30.37,NW,309,3.0,11.0,62,0.00,,SKC,0.00,VWS V14.01,2013-11-04 16:50:00,
2013-11-04 11:55:00,38.2,26.3,30.37,NW,305,0.0,11.0,62,0.00,,SKC,0.00,VWS V14.01,2013-11-04 16:55:00,
2013-11-04 12:00:00,38.5,26.2,30.36,WSW,240,3.0,11.0,61,0.00,,SKC,0.00,VWS V14.01,2013-11-04 17:00:00,
2013-11-04 12:05:00,38.6,25.5,30.36,WSW,254,4.0,9.0,59,0.00,,SKC,0.00,VWS V14.01,2013-11-04 17:05:00,
2013-11-04 12:10:00,38.8,25.7,30.36,WNW,286,4.0,11.0,59,0.00,,SKC,0.00,VWS V14.01,2013-11-04 17:10:00,
2013-11-04 12:15:00,39.1,26.0,30.37,West,271,0.0,11.0,59,0.00,,SKC,0.00,VWS V14.01,2013-11-04 17:15:00,
2013-11-04 12:20:00,39.8,26.7,30.37,WSW,254,5.0,11.0,59,0.00,,SKC,0.00,VWS V14.01,2013-11-04 17:20:00,
2013-11-04 12:25:00,39.9,25.9,30.37,WSW,253,4.0,11.0,57,0.00,,SKC,0.00,VWS V14.01,2013-11-04 17:25:00,
2013-11-04 12:30:00,40.2,25.8,30.36,WSW,255,6.0,11.0,56,0.00,,SKC,0.00,VWS V14.01,2013-11-04 17:30:00,
2013-11-04 12:36:00,40.5,25.2,30.36,WNW,293,5.0,11.0,54,0.00,,SKC,0.00,VWS V14.01,2013-11-04 17:36:00,
2013-11-04 12:41:00,40.9,25.5,30.36,West,278,5.0,11.0,54,0.00,,SKC,0.00,VWS V14.01,2013-11-04 17:41:00,
2013-11-04 12:46:00,40.8,24.5,30.35,West,276,2.0,11.0,52,0.00,,SKC,0.00,VWS V14.01,2013-11-04 17:46:00,
2013-11-04 12:51:00,40.8,24.5,30.35,WNW,294,4.0,11.0,52,0.00,,SKC,0.00,VWS V14.01,2013-11-04 17:51:00,
2013-11-04 12:56:00,40.9,24.6,30.35,WNW,286,5.0,11.0,52,0.00,,SKC,0.00,VWS V14.01,2013-11-04 17:56:00,
2013-11-04 13:00:00,38.5,26.2,30.36,WNW,302,6.0,11.0,61,0.00,,SKC,0.00,VWS V14.01,2013-11-04 18:00:00,
2013-11-04 13:01:00,41.1,23.4,30.35,WNW,286,1.0,4.0,49,0.00,,SKC,0.00,VWS V14.01,2013-11-04 18:01:00,
2013-11-04 13:07:00,41.6,24.8,30.35,West,265,7.0,9.0,51,0.00,,SKC,0.00,VWS V14.01,2013-11-04 18:07:00,
2013-11-04 13:12:00,41.6,25.3,30.35,NW,311,5.0,9.0,52,0.00,,SKC,0.00,VWS V14.01,2013-11-04 18:12:00,
2013-11-04 13:17:00,41.9,24.6,30.32,WNW,292,0.0,9.0,50,0.00,,SKC,0.00,VWS V14.01,2013-11-04 18:17:00,
2013-11-04 13:22:00,42.1,24.3,30.32,NNW,331,7.0,10.0,49,0.00,,SKC,0.00,VWS V14.01,2013-11-04 18:22:00,
2013-11-04 13:27:00,42.1,25.3,30.32,NW,312,1.0,10.0,51,0.00,,SKC,0.00,VWS V14.01,2013-11-04 18:27:00,
2013-11-04 13:32:00,42.2,24.9,30.32,WNW,296,5.0,10.0,50,0.00,,SKC,0.00,VWS V14.01,2013-11-04 18:32:00,
2013-11-04 13:37:00,42.3,24.5,30.32,West,273,5.0,10.0,49,0.00,,SKC,0.00,VWS V14.01,2013-11-04 18:37:00,
2013-11-04 13:43:00,42.6,25.3,30.32,WNW,291,5.0,10.0,50,0.00,,SKC,0.00,VWS V14.01,2013-11-04 18:43:00,
2013-11-04 13:48:00,42.9,24.6,30.31,WNW,291,4.0,10.0,48,0.00,,SKC,0.00,VWS V14.01,2013-11-04 18:48:00,
2013-11-04 13:53:00,43.1,24.3,30.31,WNW,296,6.0,11.0,47,0.00,,SKC,0.00,VWS V14.01,2013-11-04 18:53:00,
2013-11-04 13:58:00,43.3,24.4,30.31,WNW,291,6.0,12.0,47,0.00,,SKC,0.00,VWS V14.01,2013-11-04 18:58:00,
2013-11-04 14:00:00,41.1,25.3,30.35,WNW,286,4.0,11.0,53,0.00,,SKC,0.00,VWS V14.01,2013-11-04 19:00:00,
2013-11-04 14:03:00,43.8,24.4,30.30,West,269,7.0,10.0,46,0.00,,SKC,0.00,VWS V14.01,2013-11-04 19:03:00,
2013-11-04 14:08:00,44.3,24.8,30.30,WNW,298,5.0,11.0,46,0.00,,SKC,0.00,VWS V14.01,2013-11-04 19:08:00,
2013-11-04 14:13:00,44.6,23.5,30.30,SSW,202,5.0,12.0,43,0.00,,SKC,0.00,VWS V14.01,2013-11-04 19:13:00,
2013-11-04 14:18:00,44.6,23.5,30.30,NW,307,8.0,12.0,43,0.00,,SKC,0.00,VWS V14.01,2013-11-04 19:18:00,
2013-11-04 14:23:00,45.4,26.4,30.30,WSW,249,7.0,12.0,47,0.00,,SKC,0.00,VWS V14.01,2013-11-04 19:23:00,
2013-11-04 14:29:00,45.4,24.2,30.30,WNW,292,5.0,12.0,43,0.00,,SKC,0.00,VWS V14.01,2013-11-04 19:29:00,
2013-11-04 14:34:00,45.4,24.2,30.30,West,273,4.0,12.0,43,0.00,,SKC,0.00,VWS V14.01,2013-11-04 19:34:00,
2013-11-04 14:39:00,45.4,24.8,30.30,WNW,294,5.0,12.0,44,0.00,,SKC,0.00,VWS V14.01,2013-11-04 19:39:00,
2013-11-04 14:44:00,45.1,25.0,30.30,WNW,290,5.0,12.0,45,0.00,,SKC,0.00,VWS V14.01,2013-11-04 19:44:00,
2013-11-04 14:49:00,44.9,24.3,30.30,West,281,3.0,12.0,44,0.00,,SKC,0.00,VWS V14.01,2013-11-04 19:49:00,
2013-11-04 14:54:00,44.9,24.3,30.30,NW,308,1.0,12.0,44,0.00,,SKC,0.00,VWS V14.01,2013-11-04 19:54:00,
2013-11-04 14:59:00,45.1,24.5,30.30,WNW,296,6.0,12.0,44,0.00,,SKC,0.00,VWS V14.01,2013-11-04 19:59:00,
2013-11-04 15:00:00,43.6,24.7,30.30,WNW,295,5.0,12.0,47,0.00,,SKC,0.00,VWS V14.01,2013-11-04 20:00:00,
2013-11-04 15:04:00,45.2,24.6,30.30,WNW,296,2.0,6.0,44,0.00,,SKC,0.00,VWS V14.01,2013-11-04 20:04:00,
2013-11-04 15:09:00,45.5,25.4,30.30,NW,304,4.0,7.0,45,0.00,,SKC,0.00,VWS V14.01,2013-11-04 20:09:00,
2013-11-04 15:15:00,45.5,25.4,30.30,NW,304,0.0,7.0,45,0.00,,SKC,0.00,VWS V14.01,2013-11-04 20:15:00,
2013-11-04 15:20:00,45.8,25.1,30.29,WNW,296,0.0,7.0,44,0.00,,SKC,0.00,VWS V14.01,2013-11-04 20:20:00,
2013-11-04 15:25:00,45.8,24.6,30.29,West,271,7.0,9.0,43,0.00,,SKC,0.00,VWS V14.01,2013-11-04 20:25:00,
2013-11-04 15:30:00,45.7,23.9,30.28,WNW,301,5.0,10.0,42,0.00,,SKC,0.00,VWS V14.01,2013-11-04 20:30:00,
2013-11-04 15:35:00,45.5,23.8,30.28,WNW,294,6.0,10.0,42,0.00,,SKC,0.00,VWS V14.01,2013-11-04 20:35:00,
2013-11-04 15:40:00,45.4,24.8,30.28,WNW,295,5.0,10.0,44,0.00,,SKC,0.00,VWS V14.01,2013-11-04 20:40:00,
2013-11-04 15:45:00,45.4,23.7,30.28,WNW,286,6.0,10.0,42,0.00,,SKC,0.00,VWS V14.01,2013-11-04 20:45:00,
2013-11-04 15:50:00,45.2,23.5,30.28,WSW,240,10.0,14.0,42,0.00,,SKC,0.00,VWS V14.01,2013-11-04 20:50:00,
2013-11-04 15:56:00,45.4,25.3,30.28,WNW,287,4.0,14.0,45,0.00,,SKC,0.00,VWS V14.01,2013-11-04 20:56:00,
2013-11-04 16:00:00,45.1,25.6,30.30,WNW,296,5.0,12.0,46,0.00,,SKC,0.00,VWS V14.01,2013-11-04 21:00:00,
2013-11-04 16:01:00,45.2,25.1,30.28,WSW,248,2.0,3.0,45,0.00,,SKC,0.00,VWS V14.01,2013-11-04 21:01:00,
2013-11-04 16:06:00,45.2,24.6,30.28,NW,319,5.0,7.0,44,0.00,,SKC,0.00,VWS V14.01,2013-11-04 21:06:00,
2013-11-04 16:11:00,45.2,25.1,30.28,WNW,302,4.0,7.0,45,0.00,,SKC,0.00,VWS V14.01,2013-11-04 21:11:00,
2013-11-04 16:16:00,45.1,24.0,30.29,WNW,290,2.0,7.0,43,0.00,,SKC,0.00,VWS V14.01,2013-11-04 21:16:00,
2013-11-04 16:21:00,45.1,25.0,30.29,WNW,290,2.0,7.0,45,0.00,,SKC,0.00,VWS V14.01,2013-11-04 21:21:00,
2013-11-04 16:26:00,44.9,23.2,30.29,West,274,0.0,9.0,42,0.00,,SKC,0.00,VWS V14.01,2013-11-04 21:26:00,
2013-11-04 16:31:00,44.9,23.8,30.29,WNW,283,2.0,9.0,43,0.00,,SKC,0.00,VWS V14.01,2013-11-04 21:31:00,
2013-11-04 16:37:00,44.9,23.2,30.29,WNW,298,3.0,11.0,42,0.00,,SKC,0.00,VWS V14.01,2013-11-04 21:37:00,
2013-11-04 16:42:00,44.8,23.7,30.29,WNW,286,3.0,11.0,43,0.00,,SKC,0.00,VWS V14.01,2013-11-04 21:42:00,
2013-11-04 16:47:00,44.6,24.0,30.30,WNW,286,2.0,11.0,44,0.00,,SKC,0.00,VWS V14.01,2013-11-04 21:47:00,
2013-11-04 16:52:00,44.5,24.0,30.30,WNW,288,3.0,11.0,44,0.00,,SKC,0.00,VWS V14.01,2013-11-04 21:52:00,
2013-11-04 16:57:00,44.2,24.2,30.30,WNW,288,1.0,11.0,45,0.00,,SKC,0.00,VWS V14.01,2013-11-04 21:57:00,
2013-11-04 17:00:00,45.2,25.1,30.28,WSW,245,3.0,14.0,45,0.00,,SKC,0.00,VWS V14.01,2013-11-04 22:00:00,
2013-11-04 17:02:00,43.9,25.5,30.31,WNW,288,2.0,2.0,48,0.00,,SKC,0.00,VWS V14.01,2013-11-04 22:02:00,
2013-11-04 17:07:00,43.6,26.2,30.31,WNW,288,1.0,3.0,50,0.00,,SKC,0.00,VWS V14.01,2013-11-04 22:07:00,
2013-11-04 17:13:00,43.3,26.4,30.31,WNW,288,4.0,4.0,51,0.00,,SKC,0.00,VWS V14.01,2013-11-04 22:13:00,
2013-11-04 17:18:00,43.1,25.3,30.30,WNW,288,4.0,4.0,49,0.00,,SKC,0.00,VWS V14.01,2013-11-04 22:18:00,
2013-11-04 17:23:00,42.9,25.1,30.30,WNW,288,1.0,4.0,49,0.00,,SKC,0.00,VWS V14.01,2013-11-04 22:23:00,
2013-11-04 17:28:00,42.8,25.5,30.30,WNW,288,2.0,5.0,50,0.00,,SKC,0.00,VWS V14.01,2013-11-04 22:28:00,
2013-11-04 17:33:00,42.8,24.5,30.31,WNW,288,2.0,5.0,48,0.00,,SKC,0.00,VWS V14.01,2013-11-04 22:33:00,
2013-11-04 17:38:00,42.8,25.0,30.31,WNW,288,3.0,5.0,49,0.00,,SKC,0.00,VWS V14.01,2013-11-04 22:38:00,
2013-11-04 17:43:00,42.9,24.6,30.31,NW,317,1.0,6.0,48,0.00,,SKC,0.00,VWS V14.01,2013-11-04 22:43:00,
2013-11-04 17:48:00,42.8,25.5,30.32,WNW,302,4.0,6.0,50,0.00,,SKC,0.00,VWS V14.01,2013-11-04 22:48:00,
2013-11-04 17:54:00,42.6,25.8,30.32,West,275,2.0,6.0,51,0.00,,SKC,0.00,VWS V14.01,2013-11-04 22:54:00,
2013-11-04 17:59:00,42.8,24.5,30.32,WNW,287,5.0,8.0,48,0.00,,SKC,0.00,VWS V14.01,2013-11-04 22:59:00,
2013-11-04 18:00:00,44.1,25.2,30.31,WNW,288,0.0,11.0,47,0.00,,SKC,0.00,VWS V14.01,2013-11-04 23:00:00,
2013-11-04 18:04:00,43.1,24.3,30.32,WNW,284,4.0,10.0,47,0.00,,SKC,0.00,VWS V14.01,2013-11-04 23:04:00,
2013-11-04 18:09:00,43.2,24.4,30.32,West,277,4.0,10.0,47,0.00,,SKC,0.00,VWS V14.01,2013-11-04 23:09:00,
2013-11-04 18:14:00,43.1,24.3,30.32,WNW,296,5.0,10.0,47,0.00,,SKC,0.00,VWS V14.01,2013-11-04 23:14:00,
2013-11-04 18:19:00,42.9,25.1,30.32,WNW,295,2.0,10.0,49,0.00,,SKC,0.00,VWS V14.01,2013-11-04 23:19:00,
2013-11-04 18:24:00,42.9,24.6,30.32,WNW,288,5.0,10.0,48,0.00,,SKC,0.00,VWS V14.01,2013-11-04 23:24:00,
2013-11-04 18:30:00,42.9,24.1,30.32,WNW,284,7.0,10.0,47,0.00,,SKC,0.00,VWS V14.01,2013-11-04 23:30:00,
2013-11-04 18:35:00,42.9,24.6,30.31,WNW,290,4.0,10.0,48,0.00,,SKC,0.00,VWS V14.01,2013-11-04 23:35:00,
2013-11-04 18:40:00,42.8,25.0,30.31,West,281,5.0,10.0,49,0.00,,SKC,0.00,VWS V14.01,2013-11-04 23:40:00,
2013-11-04 18:45:00,42.8,24.5,30.31,West,276,4.0,10.0,48,0.00,,SKC,0.00,VWS V14.01,2013-11-04 23:45:00,
2013-11-04 18:50:00,42.8,24.5,30.31,WNW,292,4.0,10.0,48,0.00,,SKC,0.00,VWS V14.01,2013-11-04 23:50:00,
2013-11-04 18:55:00,42.8,24.0,30.31,WSW,258,5.0,12.0,47,0.00,,SKC,0.00,VWS V14.01,2013-11-04 23:55:00,
2013-11-04 19:00:00,42.8,24.5,30.31,West,275,4.0,12.0,48,0.00,,SKC,0.00,VWS V14.01,2013-11-05 00:00:00,
2013-11-04 19:05:00,42.8,24.5,30.31,West,275,8.0,11.0,48,0.00,,SKC,0.00,VWS V14.01,2013-11-05 00:05:00,
2013-11-04 19:11:00,42.6,23.8,30.31,WNW,286,9.0,11.0,47,0.00,,SKC,0.00,VWS V14.01,2013-11-05 00:11:00,
2013-11-04 19:16:00,42.6,24.3,30.30,WNW,296,5.0,11.0,48,0.00,,SKC,0.00,VWS V14.01,2013-11-05 00:16:00,
2013-11-04 19:21:00,42.5,24.2,30.30,WNW,282,6.0,11.0,48,0.00,,SKC,0.00,VWS V14.01,2013-11-05 00:21:00,
2013-11-04 19:26:00,42.5,24.2,30.30,WNW,290,5.0,11.0,48,0.00,,SKC,0.00,VWS V14.01,2013-11-05 00:26:00,
2013-11-04 19:31:00,42.5,24.2,30.30,WNW,300,2.0,11.0,48,0.00,,SKC,0.00,VWS V14.01,2013-11-05 00:31:00,
2013-11-04 19:36:00,42.5,24.2,30.30,WNW,284,6.0,11.0,48,0.00,,SKC,0.00,VWS V14.01,2013-11-05 00:36:00,
2013-11-04 19:41:00,42.3,24.0,30.30,WNW,295,6.0,11.0,48,0.00,,SKC,0.00,VWS V14.01,2013-11-05 00:41:00,
2013-11-04 19:46:00,42.2,24.9,30.30,WNW,291,6.0,11.0,50,0.00,,SKC,0.00,VWS V14.01,2013-11-05 00:46:00,
2013-11-04 19:52:00,42.2,24.4,30.30,WNW,294,4.0,11.0,49,0.00,,SKC,0.00,VWS V14.01,2013-11-05 00:52:00,
2013-11-04 19:57:00,42.2,23.4,30.30,West,273,5.0,11.0,47,0.00,,SKC,0.00,VWS V14.01,2013-11-05 00:57:00,
2013-11-04 20:00:00,42.8,24.0,30.31,West,279,5.0,12.0,47,0.00,,SKC,0.00,VWS V14.01,2013-11-05 01:00:00,
2013-11-04 20:02:00,42.3,24.0,30.30,West,280,2.0,6.0,48,0.00,,SKC,0.00,VWS V14.01,2013-11-05 01:02:00,
2013-11-04 20:07:00,42.2,23.9,30.30,West,272,4.0,10.0,48,0.00,,SKC,0.00,VWS V14.01,2013-11-05 01:07:00,
2013-11-04 20:12:00,42.2,23.4,30.30,WNW,287,6.0,10.0,47,0.00,,SKC,0.00,VWS V14.01,2013-11-05 01:12:00,
2013-11-04 20:17:00,42.2,23.4,30.30,West,273,4.0,11.0,47,0.00,,SKC,0.00,VWS V14.01,2013-11-05 01:17:00,
2013-11-04 20:22:00,42.2,23.9,30.30,WNW,292,7.0,11.0,48,0.00,,SKC,0.00,VWS V14.01,2013-11-05 01:22:00,
2013-11-04 20:27:00,41.9,24.6,30.30,WNW,284,5.0,11.0,50,0.00,,SKC,0.00,VWS V14.01,2013-11-05 01:27:00,
2013-11-04 20:33:00,41.9,23.7,30.30,WNW,291,6.0,11.0,48,0.00,,SKC,0.00,VWS V14.01,2013-11-05 01:33:00,
2013-11-04 20:38:00,42.1,23.8,30.30,WNW,295,6.0,11.0,48,0.00,,SKC,0.00,VWS V14.01,2013-11-05 01:38:00,
2013-11-04 20:43:00,41.9,23.7,30.30,WNW,293,7.0,11.0,48,0.00,,SKC,0.00,VWS V14.01,2013-11-05 01:43:00,
2013-11-04 20:48:00,42.1,23.8,30.30,WNW,292,1.0,11.0,48,0.00,,SKC,0.00,VWS V14.01,2013-11-05 01:48:00,
2013-11-04 20:53:00,41.9,23.7,30.30,West,275,2.0,11.0,48,0.00,,SKC,0.00,VWS V14.01,2013-11-05 01:53:00,
2013-11-04 20:58:00,42.1,24.3,30.30,WNW,292,1.0,11.0,49,0.00,,SKC,0.00,VWS V14.01,2013-11-05 01:58:00,
2013-11-04 21:00:00,42.3,24.0,30.30,NW,308,4.0,11.0,48,0.00,,SKC,0.00,VWS V14.01,2013-11-05 02:00:00,
2013-11-04 21:03:00,41.9,25.1,30.30,West,267,1.0,5.0,51,0.00,,SKC,0.00,VWS V14.01,2013-11-05 02:03:00,
2013-11-04 21:09:00,41.8,25.0,30.30,WNW,296,1.0,5.0,51,0.00,,SKC,0.00,VWS V14.01,2013-11-05 02:09:00,
2013-11-04 21:14:00,41.6,25.3,30.30,WNW,296,0.0,5.0,52,0.00,,SKC,0.00,VWS V14.01,2013-11-05 02:14:00,
2013-11-04 21:19:00,41.6,24.8,30.30,WNW,296,0.0,5.0,51,0.00,,SKC,0.00,VWS V14.01,2013-11-05 02:19:00,
2013-11-04 21:24:00,41.5,25.2,30.30,WNW,296,0.0,5.0,52,0.00,,SKC,0.00,VWS V14.01,2013-11-05 02:24:00,
2013-11-04 21:29:00,41.3,25.9,30.30,WNW,296,0.0,5.0,54,0.00,,SKC,0.00,VWS V14.01,2013-11-05 02:29:00,
2013-11-04 21:34:00,41.5,24.3,30.30,WNW,291,2.0,5.0,50,0.00,,SKC,0.00,VWS V14.01,2013-11-05 02:34:00,
2013-11-04 21:39:00,41.8,24.1,30.30,WNW,290,3.0,6.0,49,0.00,,SKC,0.00,VWS V14.01,2013-11-05 02:39:00,
2013-11-04 21:44:00,41.9,24.1,30.30,WNW,290,0.0,6.0,49,0.00,,SKC,0.00,VWS V14.01,2013-11-05 02:44:00,
2013-11-04 21:50:00,41.9,25.1,30.30,WNW,290,0.0,6.0,51,0.00,,SKC,0.00,VWS V14.01,2013-11-05 02:50:00,
2013-11-04 21:55:00,41.8,25.0,30.30,WNW,290,2.0,6.0,51,0.00,,SKC,0.00,VWS V14.01,2013-11-05 02:55:00,
2013-11-04 22:00:00,41.6,25.3,30.31,WNW,290,0.0,6.0,52,0.00,,SKC,0.00,VWS V14.01,2013-11-05 03:00:00,
2013-11-04 22:06:00,41.6,24.8,30.31,WNW,290,0.0,4.0,51,0.00,,SKC,0.00,VWS V14.01,2013-11-05 03:06:00,
2013-11-04 22:11:00,41.8,25.0,30.31,WNW,290,1.0,4.0,51,0.00,,SKC,0.00,VWS V14.01,2013-11-05 03:11:00,
2013-11-04 22:16:00,41.8,25.5,30.31,WNW,290,0.0,4.0,52,0.00,,SKC,0.00,VWS V14.01,2013-11-05 03:16:00,
2013-11-04 22:21:00,41.8,25.0,30.31,WNW,290,1.0,4.0,51,0.00,,SKC,0.00,VWS V14.01,2013-11-05 03:21:00,
2013-11-04 22:26:00,41.8,25.5,30.31,WNW,290,3.0,4.0,52,0.00,,SKC,0.00,VWS V14.01,2013-11-05 03:26:00,
2013-11-04 22:31:00,41.9,25.6,30.30,WNW,290,2.0,4.0,52,0.00,,SKC,0.00,VWS V14.01,2013-11-05 03:31:00,
2013-11-04 22:36:00,41.8,25.0,30.30,WNW,290,0.0,4.0,51,0.00,,SKC,0.00,VWS V14.01,2013-11-05 03:36:00,
2013-11-04 22:41:00,41.8,25.5,30.30,WNW,290,2.0,4.0,52,0.00,,SKC,0.00,VWS V14.01,2013-11-05 03:41:00,
2013-11-04 22:47:00,41.8,25.0,30.30,WNW,290,0.0,4.0,51,0.00,,SKC,0.00,VWS V14.01,2013-11-05 03:47:00,
2013-11-04 22:52:00,41.8,25.5,30.30,WNW,290,0.0,4.0,52,0.00,,SKC,0.00,VWS V14.01,2013-11-05 03:52:00,
2013-11-04 22:57:00,41.8,25.5,30.30,WNW,290,1.0,4.0,52,0.00,,SKC,0.00,VWS V14.01,2013-11-05 03:57:00,
2013-11-04 23:00:00,41.6,25.3,30.31,WNW,290,0.0,6.0,52,0.00,,SKC,0.00,VWS V14.01,2013-11-05 04:00:00,
2013-11-04 23:02:00,41.6,25.3,30.31,WNW,290,0.0,2.0,52,0.00,,SKC,0.00,VWS V14.01,2013-11-05 04:02:00,
2013-11-04 23:07:00,41.6,25.3,30.31,WNW,290,0.0,2.0,52,0.00,,SKC,0.00,VWS V14.01,2013-11-05 04:07:00,
2013-11-04 23:13:00,41.6,25.3,30.31,WNW,290,0.0,2.0,52,0.00,,SKC,0.00,VWS V14.01,2013-11-05 04:13:00,
2013-11-04 23:18:00,41.8,25.5,30.30,WNW,290,1.0,3.0,52,0.00,,SKC,0.00,VWS V14.01,2013-11-05 04:18:00,
2013-11-04 23:23:00,41.8,25.9,30.30,WNW,290,2.0,3.0,53,0.00,,SKC,0.00,VWS V14.01,2013-11-05 04:23:00,
2013-11-04 23:28:00,41.5,26.5,30.30,WNW,290,2.0,3.0,55,0.00,,SKC,0.00,VWS V14.01,2013-11-05 04:28:00,
2013-11-04 23:33:00,41.5,26.1,30.30,WNW,290,1.0,3.0,54,0.00,,SKC,0.00,VWS V14.01,2013-11-05 04:33:00,
2013-11-04 23:39:00,41.5,26.1,30.30,WNW,290,2.0,4.0,54,0.00,,SKC,0.00,VWS V14.01,2013-11-05 04:39:00,
2013-11-04 23:44:00,41.3,26.4,30.30,WNW,290,0.0,4.0,55,0.00,,SKC,0.00,VWS V14.01,2013-11-05 04:44:00,
2013-11-04 23:49:00,41.3,25.9,30.29,WNW,290,2.0,4.0,54,0.00,,SKC,0.00,VWS V14.01,2013-11-05 04:49:00,
2013-11-04 23:54:00,41.2,25.8,30.29,WNW,290,2.0,4.0,54,0.00,,SKC,0.00,VWS V14.01,2013-11-05 04:54:00,
2013-11-04 23:59:00,41.2,25.4,30.29,WNW,290,1.0,4.0,53,0.00,,SKC,0.00,VWS V14.01,2013-11-05 04:59:00,